GW6843 Weather Reports


time (UTC)temp
C
wind
direction
speed
KPH
gust
KPH
rain 1hr
cm
rain 24hr
cm
rain mn
cm
humidity
%
barometer
mb
20260505035515 7 229 1.6 3.2 0.20 0.30 0.25 83 1013.4
20260505034515 7 229 0.0 3.2 0.23 0.28 0.23 82 1013.3
20260505033515 7 229 0.0 1.6 0.18 0.23 0.18 81 1013.4
20260505032535 7 250 3.2 14.5 0.15 0.20 0.15 79 1013.5
20260505031515 8 319 4.8 19.3 0.13 0.18 0.13 78 1013.4
20260505030538 8 357 9.7 22.5 0.08 0.13 0.08 76 1013.2
20260505025557 9 351 6.4 17.7 0.05 0.10 0.05 72 1012.9
20260505024515 10 1 1.6 4.8 0.00 0.05 0.00 71 1012.7
20260505023538 10 346 1.6 6.4 0.00 0.05 0.00 69 1012.5
20260505022518 10 18 3.2 19.3 0.00 0.05 0.00 67 1012.3
20260505021516 11 28 11.3 20.9 0.00 0.05 0.00 60 1011.9
20260505020517 11 149 0.0 3.2 0.00 0.05 0.00 56 1011.5
20260505015517 11 149 0.0 3.2 0.00 0.05 0.00 57 1011.7
20260505014517 12 148 1.6 3.2 0.00 0.05 0.00 57 1011.6
20260505013517 12 76 1.6 6.4 0.00 0.05 0.00 56 1011.3
20260505012516 12 101 3.2 6.4 0.00 0.05 0.00 54 1011.5
20260505011537 12 181 1.6 4.8 0.00 0.05 0.00 56 1011.4
20260505010517 12 186 1.6 8.0 0.00 0.05 0.00 56 1011.3
20260505005516 12 177 1.6 8.0 0.00 0.05 0.00 57 1011.2
20260505004517 12 203 8.0 19.3 0.00 0.05 0.00 55 1011.3
20260505003517 12 199 11.3 19.3 0.00 0.05 0.00 55 1011.2
20260505002517 13 193 12.9 25.7 0.00 0.05 0.00 47 1011.2
20260505001518 13 305 1.6 6.4 0.00 0.05 0.00 44 1011.4
20260505000516 13 338 3.2 8.0 0.00 0.05 0.00 46 1011.3
20260504235517 13 34 3.2 8.0 0.00 0.05 0.05 46 1011.1
20260504234515 13 15 4.8 9.7 0.00 0.05 0.05 45 1011.0
20260504233515 13 12 3.2 16.1 0.00 0.05 0.05 46 1010.8
20260504232515 13 19 8.0 19.3 0.00 0.05 0.05 45 1010.7
20260504231515 13 353 9.7 24.1 0.00 0.05 0.05 46 1010.7
20260504230515 13 21 12.9 25.7 0.00 0.05 0.05 45 1010.7
20260504225515 14 16 14.5 29.0 0.00 0.05 0.05 45 1010.7
20260504224555 15 10 11.3 24.1 0.00 0.05 0.05 42 1010.7
20260504223515 15 22 11.3 24.1 0.00 0.05 0.05 42 1010.7
20260504222515 14 20 14.5 29.0 0.00 0.05 0.05 42 1010.8
20260504221515 15 6 11.3 29.0 0.00 0.05 0.05 39 1010.7
20260504220515 15 25 17.7 33.8 0.00 0.05 0.05 36 1010.5
20260504215515 16 18 11.3 35.4 0.00 0.05 0.05 35 1010.3
20260504214515 17 29 9.7 24.1 0.00 0.05 0.05 29 1009.9
20260504213515 18 91 9.7 20.9 0.00 0.05 0.05 28 1009.3
20260504212515 19 152 4.8 12.9 0.00 0.05 0.05 29 1009.2
20260504211515 19 143 6.4 14.5 0.00 0.05 0.05 29 1009.2
20260504210515 18 174 8.0 17.7 0.00 0.05 0.05 30 1009.7
20260504205555 18 146 3.2 12.9 0.00 0.05 0.05 31 1009.8
20260504204535 18 98 4.8 11.3 0.00 0.05 0.05 31 1009.8
20260504203535 18 126 3.2 12.9 0.00 0.05 0.05 33 1010.1
20260504202515 17 131 6.4 14.5 0.00 0.05 0.05 34 1010.3
20260504201515 16 119 3.2 8.0 0.00 0.05 0.05 39 1010.6
20260504200515 16 9 3.2 19.3 0.03 0.05 0.05 37 1010.8
20260504195515 16 75 1.6 6.4 0.05 0.05 0.05 38 1011.0
20260504194515 16 350 1.6 6.4 0.05 0.05 0.05 37 1010.9
20260504193515 16 181 4.8 16.1 0.05 0.05 0.05 39 1010.5
20260504192515 16 172 8.0 24.1 0.05 0.05 0.05 41 1010.5
20260504191515 15 206 11.3 17.7 0.05 0.05 0.05 46 1010.7
20260504190515 16 307 6.4 14.5 0.03 0.03 0.03 36 1010.3
20260504185515 18 239 14.5 29.0 0.00 0.00 0.00 29 1010.0
20260504184515 19 167 3.2 9.7 0.00 0.00 0.00 25 1009.7
20260504183515 19 11 3.2 20.9 0.00 0.00 0.00 24 1009.5
20260504182515 20 0 8.0 17.7 0.00 0.00 0.00 23 1009.5
20260504181515 20 309 4.8 19.3 0.00 0.00 0.00 22 1009.4
20260504180515 20 340 6.4 14.5 0.00 0.00 0.00 23 1009.4
20260504175515 20 251 4.8 11.3 0.00 0.00 0.00 22 1009.5
20260504174516 21 240 3.2 14.5 0.00 0.00 0.00 22 1009.7
20260504173517 20 17 3.2 16.1 0.00 0.00 0.00 23 1009.8
20260504172517 20 226 8.0 22.5 0.00 0.00 0.00 22 1010.1
20260504171517 20 80 6.4 22.5 0.00 0.00 0.00 24 1010.2
20260504170537 18 265 3.2 17.7 0.00 0.00 0.00 25 1010.3
20260504150517 15 287 8.0 19.3 0.00 0.00 0.00 27 1011.7
20260504140515 12 271 14.5 27.4 0.00 0.00 0.00 29 1011.7
20260504130535 11 269 19.3 37.0 0.00 0.00 0.00 30 1011.1
20260504110537 11 252 20.9 32.2 0.00 0.00 0.00 31 1011.0
20260504100517 11 251 11.3 24.1 0.00 0.00 0.00 31 1011.4
20260504081517 11 277 9.7 22.5 0.00 0.00 0.00 32 1012.0
20260504080515 11 301 9.7 22.5 0.00 0.00 0.00 32 1012.3
20260504050535 15 255 8.0 20.9 0.00 0.00 0.00 29 1013.2
20260504045515 15 265 9.7 19.3 0.00 0.00 0.00 29 1013.3
20260504044515 15 259 9.7 25.7 0.00 0.00 0.00 28 1013.4
20260504043515 15 266 9.7 19.3 0.00 0.00 0.00 28 1013.3
20260504042535 16 261 9.7 16.1 0.00 0.00 0.00 28 1013.4
20260504041535 16 259 8.0 20.9 0.00 0.00 0.00 28 1013.5
20260504040515 16 245 11.3 19.3 0.00 0.00 0.00 27 1013.5